Wind_Speed
64 63 61 60 60 59 58 57 56 55 55 54 53 53 53 53 54 55 54 53 52 50 49 46 44 41 39 40 41 40 39 36 33 31 29 28 26 25 24 23 23 22 22
70 67 66 66 64 63 62 62 61 60 59 57 55 54 54 54 54 55 55 55 55 53 51 49 47 43 41 41 43 42 41 39 36 34 32 30 28 26 24 23 22 22 21
76 74 71 70 69 68 67 66 65 65 63 61 58 56 55 56 56 56 56 56 56 55 53 52 50 47 44 43 44 44 42 42 41 38 36 34 31 29 27 25 23 22 21
80 79 77 75 73 72 71 70 69 68 67 66 63 61 59 58 58 58 57 56 56 56 55 54 52 50 48 47 46 46 43 44 45 42 39 37 35 33 31 29 27 25 24
82 82 81 80 78 77 75 74 73 71 70 69 68 66 63 62 60 60 60 59 57 56 56 56 55 54 52 50 49 48 47 44 47 46 43 41 39 37 35 33 31 29 28
82 86 85 83 82 81 80 79 77 75 73 71 71 69 67 65 64 63 62 62 61 59 58 57 57 56 55 53 51 51 49 47 45 47 47 45 43 40 39 37 35 33 31
65 78 89 89 87 85 84 82 81 79 76 74 73 71 69 67 67 66 65 64 63 63 62 60 60 59 58 56 55 54 53 50 48 45 46 47 45 43 41 40 38 37 35
52 59 73 87 92 90 88 86 85 83 80 78 76 74 72 70 68 68 68 67 67 66 65 64 63 63 62 60 58 57 56 54 51 48 46 45 46 45 44 42 41 40 38
50 50 54 69 85 94 94 91 89 87 84 81 79 77 75 73 71 70 69 69 69 68 67 67 66 66 65 64 63 61 60 58 56 53 51 49 48 47 46 45 44 42 41
46 47 47 51 65 82 93 96 94 92 89 85 83 81 79 77 75 73 72 70 70 70 69 68 68 68 68 67 65 64 63 63 62 59 56 54 52 49 47 45 44 42 41
43 43 43 43 47 59 75 90 96 95 93 90 86 84 82 80 78 76 74 73 72 71 71 70 69 69 69 69 68 66 65 64 64 62 59 57 55 52 50 48 45 43 41
40 39 39 38 38 42 51 65 81 91 94 92 90 87 85 84 82 80 77 75 74 73 72 72 71 70 69 69 68 68 67 66 65 63 60 58 57 55 53 51 49 47 44
39 37 36 35 35 34 37 43 55 69 83 90 91 89 87 86 85 84 83 80 77 76 74 73 73 73 72 70 69 68 67 67 66 64 62 60 59 58 56 54 53 51 49
39 36 34 33 33 32 32 33 38 48 61 74 83 86 87 87 87 87 86 84 83 81 78 74 74 74 74 73 72 71 69 68 66 65 64 62 61 61 60 58 57 55 53
42 38 34 32 31 31 31 31 32 36 43 53 64 73 79 83 87 88 88 88 87 86 83 79 75 74 74 73 73 73 73 71 69 67 66 64 62 61 61 61 60 58 56
43 41 37 33 32 31 31 31 31 32 34 38 45 53 61 69 76 83 87 88 89 88 87 84 80 76 75 74 73 73 73 73 73 72 69 68 66 64 64 63 62 61 59
41 41 40 37 34 32 32 32 32 32 33 34 37 40 46 52 60 69 77 83 87 88 88 87 85 80 78 77 75 73 72 71 72 72 71 70 69 68 68 67 65 63 62
39 39 41 41 39 36 34 34 34 35 35 35 36 37 39 43 47 54 63 71 78 82 86 86 86 84 81 79 78 77 75 73 71 70 70 69 69 68 67 67 67 67 66
36 36 38 41 42 41 38 37 37 37 38 38 38 38 38 40 43 46 51 58 66 72 77 81 82 83 82 79 77 76 76 76 74 72 70 69 69 69 69 70 69 68 67
33 32 34 38 42 44 42 40 39 40 40 40 40 40 39 40 41 44 48 52 57 62 67 70 73 76 78 77 76 74 74 76 75 74 72 70 70 69 70 71 70 70 70
33 30 30 33 39 44 45 44 42 42 42 42 41 40 39 38 38 38 41 46 50 55 58 61 64 67 70 71 72 70 71 73 74 74 73 72 70 69 70 71 72 74 74
34 30 28 29 33 40 45 46 44 43 43 42 41 40 37 36 34 33 35 41 48 51 53 56 60 63 65 66 67 68 68 70 72 73 73 72 72 72 71 71 72 73 75
36 31 27 26 28 34 40 44 44 43 43 43 41 40 37 35 32 32 34 38 48 50 51 55 56 59 62 64 64 65 66 67 68 68 69 71 72 73 74 75 76 76 76
38 31 27 25 25 29 35 40 43 43 44 44 43 41 39 37 35 36 37 39 47 50 52 55 55 58 60 61 63 64 64 63 64 66 68 69 71 72 74 76 77 76 76
41 32 26 23 23 25 30 36 40 43 45 46 46 44 43 41 41 41 39 41 46 50 52 55 55 54 54 55 57 58 59 59 59 60 63 65 67 68 71 73 74 75 76
40 30 24 21 21 23 27 33 38 42 45 47 48 48 47 46 46 45 43 42 43 46 50 51 52 51 50 50 50 52 52 52 52 53 55 57 58 60 61 64 66 68 69
Wind_Direction
267 264 262 259 256 253 250 248 248 248 247 245 242 240 240 240 238 236 234 233 233 233 233 235 236 236 233 231 232 233 224 218 218 216 215 214 214 215 217 217 217 217 218
266 263 260 257 254 252 250 248 247 246 246 247 245 243 240 237 236 235 234 233 234 234 234 234 235 234 232 230 230 233 227 217 216 215 214 213 213 213 214 215 216 218 219
265 262 259 256 253 251 249 247 246 245 244 244 245 245 243 240 237 235 234 233 233 234 234 235 235 234 232 230 230 233 231 219 215 216 216 215 215 216 217 218 219 221 223
262 260 258 255 253 251 248 246 245 244 244 243 242 242 241 241 239 236 235 233 233 233 234 234 235 234 233 231 230 231 232 224 216 216 217 218 218 219 221 223 225 228 230
259 257 255 253 252 250 248 246 245 243 243 242 241 240 239 238 238 237 235 234 233 232 233 234 235 235 234 232 231 231 231 229 220 216 217 219 221 223 225 228 231 233 235
258 254 252 250 249 248 248 247 245 243 242 242 241 240 239 238 237 236 235 235 234 233 233 234 234 235 235 233 232 231 232 232 228 220 219 221 224 227 230 232 234 237 240
268 257 250 248 247 246 245 245 244 243 241 240 240 239 238 238 237 236 235 235 235 234 233 233 234 234 234 234 233 232 232 233 233 230 225 225 227 230 232 235 238 240 243
283 270 257 249 245 244 243 242 242 241 240 239 239 238 237 236 236 237 236 235 235 235 234 233 233 234 234 234 233 232 233 234 235 235 234 232 232 233 235 237 240 242 243
292 288 273 256 247 243 241 240 240 240 238 237 237 236 236 234 234 235 236 236 235 235 235 234 233 233 234 234 235 234 234 234 235 236 237 238 238 238 238 238 239 240 240
295 291 287 274 257 246 241 239 238 238 238 236 235 236 235 235 233 233 233 235 235 235 235 235 234 233 233 234 235 235 236 236 237 237 238 239 239 239 238 237 237 237 237
294 292 289 283 271 257 246 240 236 236 236 236 235 235 235 235 235 234 234 233 234 235 235 235 235 235 234 234 235 235 236 237 238 238 238 238 238 237 237 237 237 237 238
293 291 290 285 277 267 256 247 240 236 235 235 235 235 236 236 236 236 236 235 234 234 234 235 235 236 236 236 236 236 236 237 237 237 237 237 237 237 237 237 238 238 239
288 287 286 284 278 270 262 252 245 241 237 235 235 236 237 238 238 239 238 238 236 234 234 235 235 236 236 236 237 237 237 237 237 237 237 236 236 237 238 239 240 240 241
281 281 280 279 275 269 263 254 245 241 239 238 237 237 238 239 240 241 241 241 240 238 235 234 235 236 236 237 237 237 237 237 237 237 237 236 236 237 239 240 241 242 243
278 275 274 273 270 266 261 254 245 237 235 237 238 239 240 241 241 242 243 243 243 241 238 236 235 236 236 236 237 238 238 238 237 237 237 237 237 238 239 241 242 242 243
278 272 267 266 264 260 256 252 245 237 231 230 233 236 239 240 242 243 243 244 244 244 242 239 237 236 236 236 236 237 237 237 237 237 237 237 238 239 240 241 242 242 242
284 273 264 259 257 254 249 246 242 238 233 230 230 232 235 238 240 242 242 243 243 243 243 242 240 237 237 236 236 236 236 236 237 236 236 237 238 239 240 241 242 242 242
292 279 266 257 252 249 245 241 239 237 235 233 233 233 235 236 238 239 240 240 240 240 241 241 240 239 238 237 236 236 235 235 235 235 234 234 234 235 236 238 239 240 241
297 285 271 259 251 246 242 239 237 236 235 235 236 237 239 240 240 240 240 238 236 235 236 236 237 237 237 237 236 235 235 235 235 234 234 234 234 233 234 235 237 239 240
304 291 276 263 253 246 241 238 235 234 234 235 237 240 242 244 245 246 243 237 231 229 229 229 230 231 232 232 232 232 233 233 233 234 234 235 235 235 235 236 236 237 238
313 300 283 267 255 248 242 238 234 232 232 233 236 239 242 246 248 248 241 232 225 221 219 220 223 225 227 228 228 228 230 232 232 232 233 234 235 236 236 236 236 237 238
318 307 292 274 260 250 243 238 233 231 230 230 233 234 238 242 245 241 231 222 215 211 211 214 217 219 222 222 223 224 226 228 230 231 232 233 232 232 233 234 235 237 238
321 311 298 282 265 253 245 239 232 229 227 227 227 228 231 233 233 226 218 211 209 209 209 211 213 215 218 220 222 223 224 226 228 230 231 232 232 232 232 231 232 235 237
324 312 300 286 269 255 246 239 232 225 224 223 223 223 224 224 221 216 211 207 205 205 206 205 206 209 215 220 222 223 225 226 228 229 229 230 232 233 234 235 236 237 238
325 313 300 286 271 257 247 239 232 224 220 220 220 219 219 219 216 213 212 209 206 205 205 203 204 207 212 216 219 221 222 224 226 227 229 231 233 234 235 237 238 239 241
324 312 299 284 271 258 247 240 232 224 220 219 218 218 218 218 216 216 215 213 211 210 210 209 209 210 212 213 214 215 217 219 220 223 225 229 231 234 236 237 238 239 241
Height
5724 5724 5724 5725 5727 5729 5730 5732 5733 5735 5737 5740 5743 5746 5750 5753 5757 5762 5767 5771 5775 5778 5781 5785 5788 5793 5797 5799 5802 5804 5807 5812 5816 5820 5823 5826 5830 5833 5836 5839 5842 5845 5848
5705 5705 5705 5706 5708 5711 5713 5715 5718 5720 5723 5726 5730 5733 5736 5740 5744 5748 5754 5759 5764 5768 5772 5775 5779 5783 5787 5791 5793 5796 5799 5804 5809 5814 5818 5821 5825 5828 5831 5834 5838 5841 5844
5682 5683 5684 5686 5688 5691 5694 5697 5700 5703 5707 5711 5715 5719 5723 5727 5731 5735 5740 5745 5751 5756 5761 5765 5769 5773 5778 5782 5785 5788 5792 5796 5801 5806 5811 5815 5819 5823 5826 5830 5833 5837 5840
5655 5657 5660 5663 5666 5669 5673 5677 5681 5685 5690 5694 5698 5703 5708 5713 5718 5723 5727 5732 5738 5743 5749 5754 5758 5763 5767 5772 5776 5780 5784 5787 5792 5797 5803 5808 5812 5817 5821 5824 5828 5831 5835
5626 5629 5633 5637 5642 5647 5651 5655 5660 5665 5671 5676 5681 5686 5692 5697 5703 5709 5714 5719 5725 5730 5736 5742 5747 5752 5757 5762 5767 5771 5775 5778 5782 5788 5794 5800 5805 5809 5814 5818 5821 5825 5829
5597 5600 5604 5610 5615 5621 5627 5632 5638 5644 5651 5656 5662 5669 5675 5681 5687 5693 5699 5706 5711 5717 5723 5729 5735 5740 5746 5752 5757 5762 5766 5769 5773 5779 5785 5791 5796 5801 5806 5810 5814 5818 5822
5568 5570 5574 5580 5586 5594 5601 5607 5614 5622 5629 5636 5643 5650 5657 5664 5671 5677 5684 5690 5697 5703 5709 5716 5722 5728 5734 5740 5746 5752 5757 5761 5765 5770 5776 5781 5787 5792 5797 5802 5806 5810 5814
5547 5544 5544 5549 5556 5565 5573 5581 5589 5598 5607 5614 5622 5631 5639 5647 5654 5660 5667 5675 5682 5688 5695 5701 5708 5715 5722 5728 5734 5741 5746 5751 5756 5761 5766 5771 5777 5783 5787 5792 5797 5802 5806
5528 5523 5520 5520 5525 5534 5544 5554 5563 5573 5583 5592 5599 5609 5619 5628 5635 5642 5651 5658 5665 5672 5680 5687 5693 5700 5708 5715 5722 5729 5735 5741 5746 5752 5757 5762 5767 5772 5777 5783 5787 5792 5796
5513 5506 5502 5498 5498 5503 5513 5524 5535 5547 5558 5570 5577 5586 5596 5606 5615 5625 5633 5641 5648 5656 5664 5671 5678 5685 5693 5700 5708 5716 5723 5729 5735 5741 5747 5752 5757 5762 5767 5772 5777 5782 5786
5500 5493 5487 5483 5480 5480 5484 5494 5506 5519 5532 5545 5556 5565 5575 5585 5595 5605 5615 5624 5631 5639 5647 5655 5662 5670 5678 5686 5694 5702 5710 5716 5723 5729 5736 5741 5746 5751 5756 5762 5767 5772 5776
5487 5481 5475 5470 5467 5465 5466 5471 5481 5493 5506 5520 5533 5544 5553 5563 5574 5584 5594 5604 5613 5622 5629 5638 5646 5654 5663 5671 5679 5688 5695 5702 5709 5717 5723 5730 5735 5740 5746 5751 5756 5762 5767
5475 5470 5464 5460 5456 5455 5455 5457 5463 5472 5483 5496 5509 5521 5531 5542 5552 5562 5572 5583 5593 5603 5611 5620 5629 5638 5647 5655 5664 5673 5680 5688 5696 5703 5711 5718 5723 5729 5735 5740 5745 5750 5756
5460 5458 5454 5450 5447 5445 5446 5447 5450 5456 5464 5475 5487 5498 5510 5521 5531 5540 5551 5561 5571 5582 5593 5604 5612 5622 5631 5640 5648 5657 5665 5674 5682 5689 5697 5705 5711 5717 5723 5728 5733 5738 5744
5444 5443 5442 5440 5438 5437 5437 5438 5441 5445 5451 5459 5468 5478 5489 5499 5509 5519 5529 5538 5549 5560 5574 5586 5596 5605 5614 5623 5632 5640 5649 5659 5667 5675 5683 5691 5698 5705 5710 5715 5720 5725 5731
5427 5427 5428 5428 5428 5427 5428 5430 5432 5436 5441 5447 5454 5462 5470 5479 5488 5498 5507 5517 5528 5540 5553 5566 5577 5589 5597 5606 5615 5623 5633 5642 5650 5659 5668 5676 5684 5691 5696 5701 5706 5711 5717
5412 5411 5413 5415 5416 5417 5419 5421 5424 5427 5432 5437 5443 5449 5456 5462 5470 5478 5486 5496 5507 5519 5532 5545 5557 5570 5579 5589 5599 5607 5616 5624 5633 5642 5652 5660 5668 5675 5681 5686 5691 5696 5702
5397 5396 5397 5399 5402 5405 5408 5411 5414 5418 5422 5427 5433 5438 5444 5450 5455 5461 5468 5476 5487 5498 5511 5524 5536 5549 5560 5572 5581 5590 5599 5607 5616 5625 5634 5643 5651 5658 5665 5671 5676 5682 5688
5384 5381 5381 5383 5386 5390 5395 5399 5403 5407 5412 5417 5422 5427 5432 5437 5442 5447 5452 5459 5468 5479 5490 5503 5516 5529 5541 5553 5562 5572 5580 5590 5600 5609 5618 5627 5635 5643 5649 5656 5662 5668 5674
5372 5368 5366 5367 5370 5374 5380 5386 5391 5396 5401 5406 5411 5416 5420 5424 5428 5432 5437 5443 5451 5461 5473 5485 5497 5509 5521 5533 5544 5553 5562 5572 5583 5593 5603 5611 5619 5627 5635 5643 5651 5655 5660
5362 5357 5354 5353 5355 5358 5364 5370 5377 5383 5388 5394 5398 5403 5407 5411 5414 5417 5421 5428 5437 5448 5459 5470 5481 5493 5503 5515 5527 5536 5545 5555 5566 5576 5586 5597 5607 5614 5619 5626 5632 5638 5644
5352 5346 5343 5341 5341 5343 5348 5354 5363 5369 5375 5381 5386 5391 5395 5399 5403 5406 5410 5417 5426 5437 5447 5457 5467 5478 5487 5499 5511 5521 5529 5539 5551 5564 5571 5579 5588 5595 5602 5609 5616 5622 5628
5342 5336 5332 5329 5329 5330 5333 5339 5348 5355 5361 5368 5373 5379 5384 5389 5393 5397 5402 5408 5417 5426 5436 5445 5454 5463 5473 5485 5497 5507 5514 5522 5534 5545 5554 5562 5569 5577 5585 5592 5598 5605 5612
5332 5325 5321 5318 5317 5317 5320 5325 5332 5341 5348 5354 5361 5367 5373 5378 5383 5388 5394 5400 5407 5416 5425 5434 5442 5451 5460 5470 5481 5491 5501 5510 5520 5527 5536 5544 5552 5560 5569 5575 5582 5589 5595
5320 5313 5309 5306 5305 5306 5308 5311 5317 5326 5334 5341 5348 5355 5362 5368 5374 5380 5386 5392 5398 5406 5414 5423 5432 5441 5450 5460 5469 5478 5487 5496 5504 5513 5521 5530 5537 5545 5552 5559 5566 5573 5580
5306 5300 5297 5295 5294 5294 5296 5298 5303 5312 5321 5328 5335 5342 5350 5357 5364 5370 5377 5384 5390 5397 5405 5413 5422 5431 5441 5450 5459 5467 5476 5485 5493 5501 5509 5517 5524 5531 5537 5544 5551 5558 5565